Back to catalog

COSMOS 2251 DEB

AliveLEO
NORAD 37331·DEBRIS·🇷🇺 Russia

Launched Jun 16, 1993 from Plesetsk Cosmodrome

Loading…

Next Passes (next 24 hours)

TLE

FreshSource: Space-Track

Epoch: Sep 13, 2026, 08:33 UTC

1 37331U 93036BKX 26256.35646281  .00000713  00000-0  25063-3 0  9994
2 37331  74.0721 285.2963 0057565 233.0523 126.5350 14.35781954887003

Track COSMOS 2251 DEB in real time with AllMySat

Download on the App Store